Regional Weather Roundup
Issued by NWS

Home | Current Version | Previous Version | Text Only | Print | Product List | Glossary Off
Versions: 1 2 3 4 5 6 7 8 9 10 11 12 13 14 15 16 17 18 19 20 21 22 23 24 25 26 27 28 29 30 31 32 33 34 35 36 37 38 39 40 41 42 43 44 45 46 47 48 49 50

375
ASUS45 KCYS 162210
RWRWY

WYOMING REGIONAL WEATHER ROUNDUP
NATIONAL WEATHER SERVICE CHEYENNE WY
300 PM MST SAT DEC 16 2017

NOTE:  "FAIR" INDICATES FEW OR NO CLOUDS BELOW 12,000 FEET
WITH NO SIGNIFICANT WEATHER AND/OR OBSTRUCTIONS TO VISIBILITY.

WYZ001-162300-
YELLOWSTONE NATIONAL PARK

CITY           SKY/WX    TMP DP  RH WIND       PRES   REMARKS
LK YELLOWSTONE   N/A     22  19  89 NW5       29.84S WCI  16
W YELLOWSTONE  NOT AVBL

$$
WYZ002>013-054>058-071-098>099-162300-
NORTHERN WYOMING

CITY           SKY/WX    TMP DP  RH WIND       PRES   REMARKS
JACKSON        LGT SNOW  29  24  82 NE7       29.84R WCI  22
CODY           FLURRIES  28  23  81 N16       29.90R WCI  16
GREYBULL       LGT SNOW  32  31  96 N12G31    29.88R VSB 1   WCI  23
WORLAND        LGT SNOW  33  33 100 N5        29.86S FOG     WCI  29
SHERIDAN       LGT SNOW  30  29  96 CALM      29.96S FOG
BUFFALO        LGT SNOW  29  23  78 N8        29.94R WCI  21
GILLETTE       LGT SNOW  29  26  89 NE9       29.93R FOG     WCI  20
HULETT         CLOUDY    32  25  74 NE7       29.94R WCI  26
NEWCASTLE      LGT SNOW  32  30  93 E10       29.91S WCI  24

$$
WYZ014>020-022>026-101>103-162300-
CENTRAL WYOMING

CITY           SKY/WX    TMP DP  RH WIND       PRES   REMARKS
BIG PINEY      CLOUDY    33  25  72 NE8       29.78R WCI  26
PINEDALE       FLURRIES  30  27  86 NW7       29.79R WCI  23
DUBOIS         LGT SNOW  27  23  86 SE7       29.79R WCI  19
LANDER         LGT SNOW  30  27  88 NW7       29.81S FOG     WCI  23
RIVERTON       LGT SNOW  31  29  92 N9        29.82R FOG     WCI  23
CASPER         CLOUDY    29  27  92 NE15      29.84S FOG     WCI  18
DOUGLAS        PTSUNNY   32  29  88 NE13      29.86S WCI  22

$$
WYZ021-027>030-104>119-162300-
SOUTHERN WYOMING

CITY           SKY/WX    TMP DP  RH WIND       PRES   REMARKS
EVANSTON       LGT SNOW  29  27  92 N6        29.80R FOG     WCI  23
FORT BRIDGER   CLOUDY    32  27  82 NW9       29.82R WCI  24
ROCK SPRINGS   PTSUNNY   37  24  59 NW9       29.76R WCI  30
DIXON          FAIR      36  17  47 CALM      29.78S
RAWLINS        FAIR      37  24  59 E7        29.76S WCI  32
SARATOGA       FAIR      32  21  64 CALM      29.76F
LARAMIE        FAIR      33  19  56 E10       29.77S WCI  25
CHEYENNE       FAIR      39  18  42 E9        29.81R WCI  33
TORRINGTON     FAIR      38  28  67 NE12      29.86S WCI  30
PINE BLUFFS    FAIR      39  21  48 MISG      29.84R

$$




USA.gov is the U.S. government's official web portal to all federal, state and local government web resources and services.